[[{"header":{"parameterUnit":"m.s-1","parameterCategory":1,"la1":30.2991,"la2":30.254,"lo1":-89.0895,"lo2":-89.0444,"dy":0.0017,"dx":0.0017,"nx":28,"ny":28,"refTime":"2023-10-30T21:00:00:Z","depth":0,"parameterNumber":2,"parameterNumberName":"U-component_of_WINDS"},"data":[0,0,0,0,0,0,0,0,0,0,0,0,0,0,0,0,0,0,0,0,0,0,0,0,0,0,0,0,0,0,0,0,0,0,0,0,0,0,0,0,0,0,0,0,0,0,0,0,0,0,0,0,0,0,0,0,0,0,0.2001,0.2001,0,0.1967,0.1967,0.1966,0.1965,0.1965,0.1966,0.1966,0.193,0.1928,0.1927,0,0,0,0,0,0,0,0,0,0,0,0,0,0.2066,0.2064,0.2001,0.2001,0.2,0.1967,0.1967,0.1966,0.1965,0.1965,0.1966,0.1966,0.193,0.1929,0.1927,0,0,0,0,0,0,0,0,0,0,0,0,0,0.2035,0.2064,0.2001,0.1996,0.1995,0.1967,0.1967,0.1966,0.1965,0.1965,0.1966,0.1967,0.1931,0.1929,0.1927,0.1902,0,0,0.1921,0.192,0,0,0,0,0,0,0,0,0.2037,0.2033,0.1997,0.1996,0.1995,0.1971,0.1976,0.1944,0.1965,0.1976,0.1966,0.1967,0.1943,0.194,0.1932,0.19,0.1899,0.192,0.1919,0.1918,0.1918,0,0,0,0,0,0,0,0.2039,0.2034,0.1988,0.1997,0.1995,0.1995,0.1991,0.197,0.1956,0.1975,0.1975,0.1971,0.1942,0.1934,0.1931,0.1898,0.192,0.1919,0.1917,0.1917,0.1845,0.1845,0,0,0,0,0,0,0.2042,0.2036,0.1989,0.1987,0.2018,0.1993,0.1989,0.1978,0.1957,0.1954,0.1971,0.1971,0.1937,0.1934,0.193,0.19,0.1918,0.1916,0.1915,0.1846,0.1845,0.1845,0,0,0,0,0,0,0.2044,0.2038,0.199,0.2011,0.2005,0.1992,0.1979,0.1977,0.1969,0.1953,0.1951,0.1964,0.1938,0.1933,0.1909,0.1899,0.1915,0.1914,0.1847,0.1846,0.1845,0.1839,0,0,0,0,0,0,0.2045,0.2039,0.2029,0.2011,0.2004,0.197,0.1978,0.1976,0.1965,0.1966,0.1947,0.1944,0.1938,0.1912,0.1907,0.1896,0.1912,0.1848,0.1846,0.1845,0.184,0.1838,0.1836,0,0,0,0,0,0.2048,0.2028,0.2028,0.2022,0.1992,0.1969,0.1965,0.1958,0.1964,0.1954,0.1945,0.1945,0.1901,0.191,0.1904,0.1892,0.1848,0.1847,0.1845,0.1841,0.1839,0.1836,0,0,0,0,0,0,0.2043,0.2025,0.2025,0.1999,0.1986,0.1969,0.1956,0.1956,0.194,0.1941,0.1933,0.1929,0.1906,0.1897,0.1907,0.1868,0.1875,0.1873,0.1874,0.1872,0.187,0.1872,0.191,0,0,0,0,0,0.204,0.2023,0.2008,0.1987,0.198,0.197,0.196,0.1956,0.1941,0.1935,0.1924,0.191,0.1893,0.1882,0.1866,0.184,0.1836,0.1829,0.1827,0.1825,0.1823,0.1809,0.1806,0.184,0.184,0.184,0,0,0.2031,0.2019,0.2009,0.1986,0.1975,0.1958,0.1965,0.1946,0.1934,0.1933,0.191,0.1901,0.1885,0.1861,0.1849,0.1852,0.1813,0.1823,0.1822,0.182,0.1807,0.1804,0.1801,0.1839,0.1839,0.1839,0,0,0.2007,0.1997,0.1978,0.1967,0.1951,0.1945,0.1941,0.1924,0.1919,0.1896,0.1895,0.188,0.1851,0.184,0.1831,0.1805,0.1804,0.18,0.1789,0.1776,0.1774,0.1771,0.1762,0.1759,0.1798,0.1798,0.1798,0,0.1998,0.1973,0.1968,0.195,0.194,0.194,0.1921,0.1911,0.189,0.1883,0.1888,0.1852,0.1841,0.1814,0.1809,0.1801,0.1796,0.1801,0.1775,0.1772,0.177,0.1761,0.1758,0.1797,0.1797,0.1797,0.1797,0,0.1964,0.1946,0.1933,0.1914,0.1903,0.1885,0.1877,0.1866,0.1864,0.1857,0.1835,0.1822,0.1804,0.1797,0.1794,0.1771,0.1773,0.1776,0.1783,0.1766,0.1758,0.1755,0.1797,0.1797,0.1797,0.1797,0,0,0.1934,0.1914,0.1909,0.1901,0.1885,0.1871,0.1854,0.1836,0.1827,0.1814,0.1799,0.1776,0.1779,0.1768,0.1764,0.1753,0.1734,0.1758,0.1757,0.1754,0.1708,0.1705,0.1702,0.1735,0.1734,0.1734,0.1709,0,0.1908,0.1876,0.1872,0.1845,0.1829,0.183,0.1814,0.1803,0.1796,0.1783,0.1776,0.1759,0.1765,0.1758,0.1747,0.1739,0.1725,0.1741,0.1721,0.172,0.1724,0.1697,0.1694,0.1672,0.1706,0.1706,0.1705,0,0.1873,0.1859,0.183,0.1817,0.1811,0.1797,0.1782,0.1768,0.1756,0.1752,0.1742,0.174,0.1722,0.1731,0.1707,0.1718,0.171,0.1705,0.1704,0.1701,0.1711,0.1693,0.1665,0.1661,0.17,0.17,0.1701,0,0.1854,0.1829,0.1808,0.1802,0.1786,0.1777,0.177,0.1758,0.1748,0.1735,0.1729,0.1714,0.1705,0.1693,0.1688,0.1695,0.1664,0.1673,0.1661,0.1661,0.1653,0.1653,0.1622,0.1649,0.1649,0.1649,0.1649,0,0.1825,0.1807,0.18,0.1787,0.1768,0.1764,0.1745,0.1738,0.1728,0.1714,0.1714,0.1701,0.1695,0.1682,0.1677,0.1658,0.1654,0.1651,0.165,0.1651,0.1651,0.1644,0.1646,0.1648,0.1648,0.1648,0.1649,0,0.18,0.1794,0.1772,0.176,0.1757,0.1743,0.1733,0.1721,0.1716,0.1698,0.1694,0.1686,0.167,0.1664,0.1645,0.1642,0.162,0.162,0.1624,0.1624,0.1612,0.1613,0.1575,0.157,0.16,0.16,0.16,0,0.1781,0.1768,0.1755,0.1746,0.1739,0.1725,0.1716,0.1712,0.1702,0.1688,0.1678,0.1663,0.165,0.1625,0.1617,0.1603,0.1603,0.159,0.16,0.1602,0.1602,0.1603,0.1602,0.1588,0.1588,0.1587,0.1587,0,0.1749,0.1747,0.1734,0.1721,0.171,0.1699,0.1688,0.1681,0.1675,0.1665,0.1649,0.164,0.1621,0.1606,0.1591,0.1584,0.1585,0.1584,0.1581,0.1581,0.1584,0.1582,0.1619,0.1585,0.1585,0.1585,0.1585,0.1585,0.1726,0.1715,0.1704,0.169,0.1682,0.1673,0.1661,0.1655,0.1642,0.1627,0.1626,0.1609,0.1599,0.158,0.1572,0.1559,0.1563,0.1557,0.1556,0.1555,0.1554,0.1587,0.1557,0.1557,0.1557,0.1557,0.1557,0,0.1694,0.1688,0.1675,0.1661,0.165,0.1653,0.1641,0.1632,0.1617,0.1608,0.1596,0.1579,0.1565,0.1557,0.1543,0.1534,0.1534,0.1531,0.1531,0.1529,0.1552,0.1556,0.1531,0.1531,0.1531,0.1531,0.1531,0.1531,0.1676,0.1657,0.1654,0.1632,0.1626,0.161,0.1604,0.1595,0.1588,0.1569,0.1557,0.1553,0.1544,0.153,0.1517,0.1515,0.151,0.1506,0.1504,0.1525,0.1528,0.153,0.1534,0.1505,0.1505,0.1483,0.1483,0.1483]},{"header":{"parameterUnit":"m.s-1","parameterCategory":1,"la1":30.2991,"la2":30.254,"lo1":-89.0895,"lo2":-89.0444,"dy":0.0017,"dx":0.0017,"nx":28,"ny":28,"refTime":"2023-10-30T21:00:00:Z","depth":0,"parameterNumber":3,"parameterNumberName":"V-component_of_WINDS"},"data":[0,0,0,0,0,0,0,0,0,0,0,0,0,0,0,0,0,0,0,0,0,0,0,0,0,0,0,0,0,0,0,0,0,0,0,0,0,0,0,0,0,0,0,0,0,0,0,0,0,0,0,0,0,0,0,0,0,0,-8.2875,-8.2876,0,-8.2997,-8.2998,-8.3,-8.2926,-8.2923,-8.2919,-8.2916,-8.3034,-8.304,-8.3046,0,0,0,0,0,0,0,0,0,0,0,0,0,-8.257,-8.2576,-8.2875,-8.2876,-8.2878,-8.2997,-8.2998,-8.3,-8.2927,-8.2923,-8.2918,-8.2914,-8.3032,-8.3039,-8.3047,0,0,0,0,0,0,0,0,0,0,0,0,0,-8.2698,-8.2578,-8.2874,-8.2856,-8.2855,-8.2996,-8.2999,-8.3001,-8.2928,-8.2922,-8.2917,-8.2912,-8.3029,-8.3038,-8.3048,-8.3212,0,0,-8.3077,-8.3081,0,0,0,0,0,0,0,0,-8.2691,-8.271,-8.2857,-8.2857,-8.2857,-8.2941,-8.2934,-8.3071,-8.2929,-8.29,-8.2916,-8.291,-8.3007,-8.3018,-8.3052,-8.3217,-8.3222,-8.3078,-8.3084,-8.3088,-8.3091,0,0,0,0,0,0,0,-8.2682,-8.2704,-8.2923,-8.2859,-8.2859,-8.2839,-8.2851,-8.296,-8.2981,-8.2902,-8.2897,-8.2913,-8.3005,-8.3043,-8.3054,-8.3224,-8.3078,-8.3086,-8.3092,-8.3096,-8.353,-8.3535,0,0,0,0,0,0,-8.2676,-8.2697,-8.2919,-8.2926,-8.276,-8.2849,-8.2862,-8.2919,-8.298,-8.2984,-8.2917,-8.2909,-8.3029,-8.3043,-8.3058,-8.3254,-8.3088,-8.3097,-8.3102,-8.3524,-8.3531,-8.3537,0,0,0,0,0,0,-8.267,-8.2696,-8.2914,-8.2811,-8.2837,-8.2859,-8.2924,-8.2924,-8.2962,-8.2991,-8.2994,-8.2952,-8.3025,-8.3044,-8.3175,-8.3257,-8.3101,-8.311,-8.3517,-8.3526,-8.3534,-8.3647,0,0,0,0,0,0,-8.2661,-8.2695,-8.2759,-8.2813,-8.2843,-8.3031,-8.2929,-8.2931,-8.2979,-8.297,-8.3025,-8.3028,-8.3023,-8.3161,-8.3184,-8.3267,-8.3117,-8.351,-8.3521,-8.3531,-8.3636,-8.3658,-8.3677,0,0,0,0,0,-8.2651,-8.2784,-8.2763,-8.279,-8.2924,-8.3036,-8.3053,-8.3046,-8.2986,-8.305,-8.3069,-8.3027,-8.3244,-8.3175,-8.32,-8.3287,-8.3504,-8.3518,-8.353,-8.3626,-8.3654,-8.3677,0,0,0,0,0,0,-8.2737,-8.2791,-8.2767,-8.2923,-8.2976,-8.3023,-8.3103,-8.3075,-8.3144,-8.3131,-8.3117,-8.313,-8.3266,-8.329,-8.3211,-8.3449,-8.3365,-8.3383,-8.3429,-8.3455,-8.3475,-8.3466,-8.3125,0,0,0,0,0,-8.2775,-8.2864,-8.2905,-8.3038,-8.3066,-8.3081,-8.3129,-8.3119,-8.3172,-8.3193,-8.3222,-8.3273,-8.3352,-8.3405,-8.348,-8.3639,-8.3649,-8.3711,-8.3732,-8.3749,-8.3765,-8.385,-8.3878,-8.358,-8.358,-8.3579,0,0,-8.2852,-8.2892,-8.2949,-8.3056,-8.3096,-8.3186,-8.31,-8.3199,-8.3265,-8.3208,-8.3333,-8.3356,-8.3411,-8.3557,-8.3622,-8.358,-8.385,-8.3766,-8.3779,-8.3786,-8.3866,-8.3894,-8.3919,-8.3588,-8.3587,-8.3585,0,0,-8.3039,-8.308,-8.3195,-8.3237,-8.33,-8.3309,-8.3336,-8.3389,-8.3403,-8.3529,-8.3488,-8.3565,-8.3703,-8.3744,-8.3783,-8.3988,-8.3951,-8.4012,-8.412,-8.4203,-8.4227,-8.4247,-8.4319,-8.4345,-8.4028,-8.4028,-8.4029,0,-8.3127,-8.3264,-8.3257,-8.336,-8.3408,-8.3363,-8.3478,-8.3519,-8.3601,-8.3634,-8.3587,-8.376,-8.3794,-8.3948,-8.3998,-8.4032,-8.4061,-8.4005,-8.4224,-8.4245,-8.4264,-8.4332,-8.436,-8.4035,-8.4035,-8.4034,-8.4033,0,-8.3368,-8.3464,-8.3549,-8.3633,-8.369,-8.3799,-8.3806,-8.3864,-8.385,-8.3863,-8.3991,-8.4031,-8.4114,-8.415,-8.4135,-8.4302,-8.4274,-8.4226,-8.4141,-8.43,-8.4364,-8.439,-8.4045,-8.4043,-8.4041,-8.4039,0,0,-8.3612,-8.3692,-8.3723,-8.3761,-8.3827,-8.3899,-8.4005,-8.4088,-8.4138,-8.4197,-8.4284,-8.4402,-8.4358,-8.4403,-8.4393,-8.4466,-8.4624,-8.4409,-8.441,-8.4447,-8.4808,-8.4843,-8.4874,-8.4601,-8.4606,-8.461,-8.4803,0,-8.3803,-8.3991,-8.3988,-8.4161,-8.4248,-8.4207,-8.4299,-8.4348,-8.4364,-8.4438,-8.4453,-8.4538,-8.4474,-8.4501,-8.4572,-8.459,-8.4696,-8.4576,-8.4679,-8.4683,-8.4666,-8.4907,-8.4945,-8.5126,-8.4828,-8.4833,-8.4836,0,-8.405,-8.412,-8.4303,-8.4356,-8.4393,-8.4476,-8.4552,-8.4624,-8.4678,-8.4684,-8.4735,-8.4714,-8.4818,-8.4732,-8.4875,-8.4793,-8.4835,-8.4851,-8.4857,-8.4866,-8.4768,-8.4921,-8.5183,-8.521,-8.4875,-8.4872,-8.4869,0,-8.4209,-8.4348,-8.4475,-8.4509,-8.4575,-8.4634,-8.4664,-8.4713,-8.4763,-8.4829,-8.4861,-8.4937,-8.4978,-8.5036,-8.5035,-8.4972,-8.518,-8.5093,-8.5186,-8.5186,-8.523,-8.5227,-8.5502,-8.526,-8.5259,-8.5259,-8.5258,0,-8.4421,-8.4534,-8.4548,-8.4626,-8.4751,-8.4746,-8.4869,-8.4892,-8.4937,-8.5017,-8.4985,-8.5061,-8.5055,-8.5131,-8.513,-8.5249,-8.5268,-8.5274,-8.5272,-8.5276,-8.5275,-8.5302,-8.5289,-8.5266,-8.5264,-8.5263,-8.5262,0,-8.4619,-8.4633,-8.4769,-8.4821,-8.4837,-8.4926,-8.4969,-8.5042,-8.5056,-8.5158,-8.5181,-8.5201,-8.5288,-8.5294,-8.5393,-8.5393,-8.5537,-8.5521,-8.5519,-8.5516,-8.5608,-8.5599,-8.5909,-8.5949,-8.5682,-8.5684,-8.5686,0,-8.4753,-8.484,-8.4902,-8.4955,-8.4989,-8.5075,-8.5126,-8.5124,-8.5179,-8.5248,-8.5312,-8.5397,-8.5465,-8.5606,-8.5628,-8.5704,-8.569,-8.5793,-8.5701,-8.5702,-8.569,-8.5685,-8.5693,-8.5811,-8.5813,-8.5816,-8.5818,0,-8.499,-8.4993,-8.507,-8.5151,-8.5214,-8.5277,-8.5334,-8.5379,-8.5383,-8.5446,-8.5537,-8.559,-8.5693,-8.5778,-8.5852,-8.5879,-8.5849,-8.5847,-8.5872,-8.5877,-8.5872,-8.5875,-8.5567,-8.584,-8.5837,-8.5836,-8.5835,-8.5834,-8.5159,-8.5234,-8.529,-8.5377,-8.5422,-8.5477,-8.5548,-8.5572,-8.5648,-8.5734,-8.5728,-8.5828,-8.5878,-8.5976,-8.601,-8.6086,-8.6051,-8.6088,-8.6097,-8.6106,-8.6115,-8.5861,-8.61,-8.6099,-8.6099,-8.6098,-8.6098,0,-8.5394,-8.5428,-8.5509,-8.5592,-8.5661,-8.563,-8.5692,-8.575,-8.584,-8.5891,-8.596,-8.6063,-8.6145,-8.6174,-8.6253,-8.6308,-8.6296,-8.6329,-8.6324,-8.6331,-8.6143,-8.6113,-8.6337,-8.6337,-8.6337,-8.6337,-8.6337,-8.6337,-8.5523,-8.5649,-8.5658,-8.5804,-8.5837,-8.5937,-8.5976,-8.6026,-8.6067,-8.6185,-8.6254,-8.6273,-8.6315,-8.6397,-8.647,-8.6476,-8.6506,-8.6544,-8.6545,-8.6368,-8.6344,-8.6321,-8.6292,-8.6551,-8.6552,-8.6726,-8.6728,-8.6729]}]]